Date String (YYYY-MM-DD hh:mm:ss) UTC,Instrument flags,Ambient pressure (hPa),Sample flow (lpm),Bypass flow (lpm),Sample temperature (°C),Ambient temperature (°C),ASC tube jacket temperature (°C),LED temperature (°C),Box temperature (°C),Sample RH (%),Span deviation,Mass concentration (μg/m³),Mass concentration (μg/m³),Mass concentration (μg/m³)
DateTimeUTC,F1_M11,P_M11,Q1_M11,Q2_M11,T1_M11,T2_M11,T3_M11,T4_M11,T5_M11,U1_M11,ZSPAN_M11,X0_M11,X2_M11,X1_M11
2022-03-06 19:00:00,,0825.3,4.98,0.00,22.5,22.2,00.0,31.5,24.2,09.4,0000.0,0004.17,0003.33,0003.22
2022-03-06 19:01:00,,0825.3,5.01,0.00,22.6,23.0,00.0,31.6,24.5,09.2,0000.0,0004.04,0003.25,0003.12
2022-03-06 19:02:00,,0825.3,5.00,0.00,22.8,23.5,00.0,31.6,24.7,09.2,0000.0,0003.82,0003.17,0002.98
2022-03-06 19:03:00,,0825.3,5.00,0.00,22.8,23.3,00.0,31.6,24.8,09.0,0000.0,0003.38,0003.01,0002.81
2022-03-06 19:04:00,,0825.3,5.01,0.00,22.8,23.0,00.0,31.6,24.7,09.1,0000.0,0003.27,0002.86,0002.65
2022-03-06 19:05:00,,0825.3,5.00,0.00,22.8,22.8,00.0,31.6,24.7,09.1,0000.0,0003.16,0002.74,0002.52
2022-03-06 19:06:00,,0825.3,5.00,0.00,22.8,22.5,00.0,31.6,24.6,09.1,0000.0,0003.09,0002.64,0002.41
2022-03-06 19:07:00,,0825.3,4.99,0.00,22.8,22.3,00.0,31.6,24.5,09.0,0000.0,0003.10,0002.58,0002.31
2022-03-06 19:08:00,,0825.3,5.02,0.00,22.7,22.1,00.0,31.6,24.5,09.2,0000.0,0003.12,0002.55,0002.27
2022-03-06 19:09:00,,0825.3,4.99,0.00,22.7,22.1,00.0,31.6,24.4,09.1,0000.0,0003.06,0002.51,0002.23
2022-03-06 19:10:00,,0825.3,4.99,0.00,22.7,22.0,00.0,31.6,24.3,08.9,0000.0,0003.02,0002.48,0002.22
2022-03-06 19:11:00,,0825.3,5.00,0.00,22.6,21.9,00.0,31.6,24.3,08.9,0000.0,0003.07,0002.53,0002.27
2022-03-06 19:12:00,,0825.3,5.01,0.00,22.6,21.8,00.0,31.6,24.2,09.1,0000.0,0003.17,0002.58,0002.32
2022-03-06 19:13:00,,0825.3,4.99,0.00,22.6,21.8,00.0,31.6,24.2,09.3,0000.0,0004.06,0002.64,0002.39
2022-03-06 19:14:00,,0825.3,5.01,0.00,22.5,21.7,00.0,31.6,24.2,09.3,0000.0,0004.23,0002.77,0002.49
2022-03-06 19:15:00,,0825.4,5.00,0.00,22.5,21.7,00.0,31.6,24.2,09.3,0000.0,0004.30,0002.88,0002.61
2022-03-06 19:16:00,,0825.3,5.00,0.00,22.6,22.4,00.0,31.6,24.3,09.4,0000.0,0004.45,0003.00,0002.72
2022-03-06 19:17:00,,0825.3,5.00,0.00,22.7,23.2,00.0,31.7,24.6,09.3,0000.0,0005.02,0003.12,0002.83
2022-03-06 19:18:00,,0825.3,5.00,0.00,22.9,23.6,00.0,31.7,24.9,09.3,0000.0,0006.36,0003.17,0002.93
2022-03-06 19:19:00,,0825.3,5.00,0.00,22.9,23.4,00.0,31.7,24.9,09.2,0000.0,0006.71,0003.18,0002.98
2022-03-06 19:20:00,,0825.3,5.00,0.00,22.9,23.1,00.0,31.7,24.8,09.1,0000.0,0006.87,0003.22,0003.05
2022-03-06 19:21:00,,0825.3,5.00,0.00,22.9,22.9,00.0,31.7,24.7,09.3,0000.0,0006.99,0003.30,0003.16
2022-03-06 19:22:00,,0825.2,5.01,0.00,22.9,22.6,00.0,31.7,24.6,09.5,0000.0,0007.16,0003.38,0003.23
2022-03-06 19:23:00,,0825.3,5.00,0.00,22.8,22.4,00.0,31.7,24.5,09.2,0000.0,0007.24,0003.41,0003.26
2022-03-06 19:24:00,,0825.3,4.99,0.00,22.8,22.3,00.0,31.7,24.5,09.0,0000.0,0006.57,0003.47,0003.31
2022-03-06 19:25:00,,0825.2,4.99,0.00,22.8,22.2,00.0,31.7,24.4,09.2,0000.0,0006.62,0003.52,0003.38
2022-03-06 19:26:00,,0825.3,5.00,0.00,22.7,22.1,00.0,31.7,24.4,09.3,0000.0,0006.83,0003.61,0003.46
2022-03-06 19:27:00,,0825.2,5.01,0.00,22.7,22.0,00.0,31.7,24.4,09.3,0000.0,0007.01,0003.70,0003.55
2022-03-06 19:28:00,,0825.2,4.99,0.00,22.7,21.9,00.0,31.7,24.4,09.6,0000.0,0007.02,0003.78,0003.65
2022-03-06 19:29:00,,0825.2,5.00,0.00,22.7,21.9,00.0,31.7,24.3,09.9,0000.0,0005.95,0003.92,0003.76
2022-03-06 19:30:00,,0825.2,4.99,0.00,22.6,21.9,00.0,31.7,24.3,09.6,0000.0,0005.69,0004.09,0003.91
2022-03-06 19:31:00,,0825.2,5.00,0.00,22.6,21.8,00.0,31.7,24.3,09.4,0000.0,0005.85,0004.23,0004.05
2022-03-06 19:32:00,,0825.2,5.02,0.00,22.6,21.8,00.0,31.6,24.3,09.2,0000.0,0005.94,0004.30,0004.13
2022-03-06 19:33:00,,0825.2,5.00,0.00,22.6,21.8,00.0,31.6,24.3,09.3,0000.0,0006.05,0004.37,0004.20
2022-03-06 19:34:00,,0825.2,5.00,0.00,22.6,21.7,00.0,31.6,24.3,09.5,0000.0,0006.18,0004.45,0004.29
2022-03-06 19:35:00,,0825.2,5.00,0.00,22.6,21.7,00.0,31.6,24.3,09.6,0000.0,0006.33,0004.53,0004.37
2022-03-06 19:36:00,,0825.2,5.00,0.00,22.6,21.9,00.0,31.6,24.3,09.7,0000.0,0006.45,0004.60,0004.43
2022-03-06 19:37:00,,0825.2,5.00,0.00,22.6,22.6,00.0,31.6,24.5,09.6,0000.0,0006.68,0004.71,0004.51
2022-03-06 19:38:00,,0825.1,4.99,0.00,22.8,23.3,00.0,31.7,24.7,09.6,0000.0,0007.21,0004.79,0004.57
2022-03-06 19:39:00,,0825.1,5.00,0.00,22.8,23.2,00.0,31.7,24.8,09.6,0000.0,0007.85,0004.86,0004.63
2022-03-06 19:40:00,,0825.1,5.00,0.00,22.9,23.0,00.0,31.7,24.8,09.7,0000.0,0007.88,0004.88,0004.67
2022-03-06 19:41:00,,0825.0,5.00,0.00,22.9,22.8,00.0,31.7,24.7,09.8,0000.0,0007.86,0004.89,0004.70
2022-03-06 19:42:00,,0825.0,5.01,0.00,22.9,22.6,00.0,31.7,24.7,10.0,0000.0,0007.82,0004.89,0004.71
2022-03-06 19:43:00,,0825.0,4.99,0.00,22.8,22.4,00.0,31.7,24.6,09.9,0000.0,0007.89,0004.94,0004.75
2022-03-06 19:44:00,,0824.9,5.00,0.00,22.8,22.3,00.0,31.7,24.6,09.7,0000.0,0007.94,0004.99,0004.80
2022-03-06 19:45:00,,0824.9,4.99,0.00,22.8,22.2,00.0,31.7,24.6,09.7,0000.0,0008.01,0005.05,0004.85
2022-03-06 19:46:00,,0824.9,4.99,0.00,22.8,22.2,00.0,31.7,24.6,10.0,0000.0,0008.05,0005.09,0004.88
2022-03-06 19:47:00,,0824.9,5.01,0.00,22.8,22.1,00.0,31.7,24.5,10.3,0000.0,0008.08,0005.12,0004.91
2022-03-06 19:48:00,,0824.9,4.99,0.00,22.8,22.1,00.0,31.7,24.5,10.1,0000.0,0007.98,0005.09,0004.91
2022-03-06 19:49:00,,0824.9,5.00,0.00,22.8,22.0,00.0,31.7,24.5,10.0,0000.0,0007.88,0005.06,0004.91
2022-03-06 19:50:00,,0824.9,4.99,0.00,22.7,22.0,00.0,31.7,24.5,10.0,0000.0,0007.08,0005.05,0004.92
2022-03-06 19:51:00,,0824.8,5.01,0.00,22.7,22.0,00.0,31.7,24.4,10.3,0000.0,0007.05,0005.04,0004.92
2022-03-06 19:52:00,,0824.8,5.00,0.00,22.7,21.9,00.0,31.7,24.4,10.1,0000.0,0007.06,0005.03,0004.90
2022-03-06 19:53:00,,0824.9,5.00,0.00,22.7,21.9,00.0,31.7,24.4,10.2,0000.0,0007.05,0005.01,0004.87
2022-03-06 19:54:00,,0824.9,5.00,0.00,22.7,21.9,00.0,31.7,24.4,10.2,0000.0,0007.05,0004.99,0004.85
2022-03-06 19:55:00,,0824.9,5.01,0.00,22.7,21.9,00.0,31.7,24.4,10.3,0000.0,0006.95,0004.95,0004.82
2022-03-06 19:56:00,,0824.9,5.00,0.00,22.7,21.9,00.0,31.7,24.4,10.2,0000.0,0006.85,0004.89,0004.78
2022-03-06 19:57:00,,0824.9,5.00,0.00,22.7,22.5,00.0,31.7,24.5,10.0,0000.0,0006.83,0004.86,0004.75
2022-03-06 19:58:00,,0824.9,4.99,0.00,22.9,23.2,00.0,31.8,24.8,10.0,0000.0,0006.81,0004.81,0004.72
2022-03-06 19:59:00,,0824.9,4.99,0.00,23.0,23.3,00.0,31.8,24.9,10.1,0000.0,0006.75,0004.78,0004.69
